星链-3664 (STARLINK-3664 )

导读 | 豆包AI

STARLINK-3664是美国太空探索技术公司星链星座的一员,星链旨在构建覆盖全球的卫星互联网星座。该卫星于2022年3月9日发射,属于低轨通信卫星,承担为全球偏远地区等提供宽带互联网接入服务的任务,推进了星链全球组网进程,也反映了美国低轨卫星星座的快速建设节奏。

Basic Information
目录编号:
51984
目录名称:
STARLINK-3664
国际标识:
2022-025AE
轨道中心:
EARTH
卫星名称:
星链-3664
卫星全名:
星链-3664 (STARLINK-3664 )
卫星状态:
在轨 (已飞行1514 天)
发射日期:
2022-03-09 UTC
国别 :
美国 (US)
星等 :
--
Orbit Information
数据来源 国际轨道数据 AOE轨道数据
星历时间 2026-04-30T18:46:47+0800
13小时前
查看轨道信息
2026-04-24T16:00:00+0800
6天前
查看轨道信息
半长轴 6917.88km 6917.874km
偏心率 0.0001029 0.0001582
轨道倾角 53.216° 53.215°
近地点辐角 83.428° 42.136°
升交点赤经 166.850° 194.305°
平近点角 276.683° 199.900°
近地点 539.031km 538.642km
远地点 540.455km 540.832km
周期 95.438分钟 95.437分钟
每日圈数 15.088403 15.088422
Detailed Information
固有亮度:
5
最大亮度:
2.5
卫星平台:
Starlink v1.5
覆盖范围:
全球
运营商:
太空探索技术公司
运营商所在国:
美国
制造商(研发单位):
太空探索技术公司
制造商所在国:
美国
使用方式:
暂无
Satellite Introduction
星链(Starlink)计划是由太空探索技术公司(SpaceX)提出的一个巨型低轨卫星互联网星座项目,计划在2019年至2024年间在太空搭建由约1.2万颗卫星组成的“星链”网络,其中1584颗将部署在地球上空550千米处的近地轨道,并从2020年开始工作。该卫星仍在工作。
2D Orbit Map
3D Orbit Map
Orbit Altitude Analysis Chart
Orbit Inclination Analysis Chart
Orbit Comprehensive Analysis Chart
View Comprehensive Chart